KLM1857 EHAM-EDDM

Flight info

Callsign KLM1857
Flight time 0h 37m
Altitude 33000
Route EDUPO Z739 MISGO DCT DOJOH DCT DODEN DCT TABUM DCT BOMBI T104 ROKIL ROKIL1B
Aircraft B738/M-SDE2E3FGHIRWXY/LB1

Departure

Time 2026-05-07 14:00
Airport Amsterdam Airport Schiphol (EHAM)

Arrival

Time 2026-05-07 14:37
Airport Munich Airport (EDDM)
Time Latitude Longitude Altitude Speed Heading
2026-05-07 13:26 52.30897 4.77175 -2 ft 0 kts
2026-05-07 13:48 52.30895 4.77175 -2 ft 1 kts
2026-05-07 13:48 52.30880 4.77173 -2 ft 3 kts 12°
2026-05-07 13:48 52.30861 4.77163 -2 ft 3 kts 34°
2026-05-07 13:49 52.30848 4.77143 -2 ft 3 kts 72°
2026-05-07 13:49 52.30846 4.77126 -2 ft 0 kts 93°
2026-05-07 13:52 52.30846 4.77142 -2 ft 4 kts 93°
2026-05-07 13:52 52.30844 4.77208 -2 ft 8 kts 93°
2026-05-07 13:52 52.30840 4.77317 -2 ft 11 kts 93°
2026-05-07 13:52 52.30837 4.77430 -2 ft 6 kts 93°
2026-05-07 13:53 52.30834 4.77494 -2 ft 6 kts 93°
2026-05-07 13:53 52.30844 4.77579 -2 ft 11 kts 53°
2026-05-07 13:53 52.30927 4.77613 -2 ft 14 kts
2026-05-07 13:53 52.31036 4.77622 -2 ft 17 kts
2026-05-07 13:54 52.31163 4.77634 -2 ft 19 kts
2026-05-07 13:54 52.31305 4.77646 -2 ft 21 kts
2026-05-07 13:54 52.31458 4.77631 -2 ft 23 kts 334°
2026-05-07 13:54 52.31565 4.77450 -2 ft 22 kts 296°
2026-05-07 13:55 52.31572 4.77206 -2 ft 22 kts 266°
2026-05-07 13:55 52.31564 4.76964 -2 ft 21 kts 267°
2026-05-07 13:55 52.31556 4.76731 -2 ft 20 kts 266°
2026-05-07 13:55 52.31548 4.76505 -2 ft 20 kts 267°
2026-05-07 13:56 52.31541 4.76285 -2 ft 19 kts 266°
2026-05-07 13:56 52.31533 4.76076 -2 ft 18 kts 266°
2026-05-07 13:56 52.31526 4.75865 -2 ft 20 kts 266°
2026-05-07 13:56 52.31518 4.75621 -2 ft 23 kts 266°
2026-05-07 13:57 52.31508 4.75347 -2 ft 25 kts 266°
2026-05-07 13:57 52.31506 4.75270 -2 ft 2 kts 268°
2026-05-07 13:57 52.31504 4.75207 -2 ft 8 kts 268°
2026-05-07 13:57 52.31502 4.75121 -2 ft 8 kts 267°
2026-05-07 13:58 52.31498 4.75008 -2 ft 13 kts 266°
2026-05-07 13:58 52.31491 4.74824 -2 ft 19 kts 266°
2026-05-07 13:58 52.31510 4.74676 -2 ft 12 kts 326°
2026-05-07 13:58 52.31593 4.74659 -2 ft 12 kts
2026-05-07 13:59 52.31661 4.74714 -1 ft 12 kts 61°
2026-05-07 13:59 52.31676 4.74943 -4 ft 43 kts 87°
2026-05-07 13:59 52.31703 4.75784 -2 ft 105 kts 87°
2026-05-07 13:59 52.31756 4.77260 8 ft 153 kts 87°
2026-05-07 14:00 52.31814 4.79040 515 ft 155 kts 85°
2026-05-07 14:00 52.31870 4.80755 1004 ft 166 kts 84°
2026-05-07 14:00 52.31949 4.82762 1471 ft 183 kts 82°
2026-05-07 14:00 52.32048 4.84970 1763 ft 203 kts 84°
2026-05-07 14:01 52.31982 4.87387 1974 ft 225 kts 106°
2026-05-07 14:01 52.31317 4.89845 2178 ft 250 kts 114°
2026-05-07 14:01 52.30577 4.92477 2797 ft 257 kts 113°
2026-05-07 14:01 52.29849 4.95174 3478 ft 263 kts 113°
2026-05-07 14:02 52.29177 4.97965 4245 ft 263 kts 106°
2026-05-07 14:02 52.28704 5.00799 5056 ft 263 kts 106°
2026-05-07 14:02 52.28206 5.03690 5767 ft 266 kts 105°
2026-05-07 14:02 52.27736 5.06641 6481 ft 270 kts 105°
2026-05-07 14:03 52.27226 5.09574 7234 ft 270 kts 107°
2026-05-07 14:03 52.26697 5.12553 7912 ft 275 kts 106°
2026-05-07 14:03 52.26172 5.15605 8548 ft 282 kts 107°
2026-05-07 14:03 52.25636 5.18703 9249 ft 286 kts 107°
2026-05-07 14:04 52.25088 5.21837 9953 ft 291 kts 107°
2026-05-07 14:04 52.24513 5.25054 10467 ft 302 kts 110°
2026-05-07 14:04 52.23508 5.28168 10628 ft 322 kts 126°
2026-05-07 14:04 52.22170 5.31172 10927 ft 337 kts 127°
2026-05-07 14:05 52.20766 5.34279 11560 ft 343 kts 127°
2026-05-07 14:05 52.19355 5.37430 12300 ft 346 kts 126°
2026-05-07 14:05 52.15197 5.46880 14416 ft 358 kts 126°
2026-05-07 14:05 52.09345 5.60277 17220 ft 372 kts 126°
2026-05-07 14:06 52.02939 5.73923 19723 ft 387 kts 133°
2026-05-07 14:06 51.95651 5.87176 22171 ft 398 kts 132°
2026-05-07 14:06 51.88703 6.00153 24173 ft 410 kts 133°
2026-05-07 14:06 51.81834 6.12814 25764 ft 420 kts 133°
2026-05-07 14:07 51.74155 6.26818 27396 ft 430 kts 133°
2026-05-07 14:07 51.66173 6.41375 28899 ft 441 kts 133°
2026-05-07 14:07 51.58308 6.55619 30631 ft 440 kts 133°
2026-05-07 14:07 51.49947 6.70678 31681 ft 449 kts 133°
2026-05-07 14:08 51.42837 6.83427 33030 ft 445 kts 133°
2026-05-07 14:08 51.34105 6.97827 33050 ft 438 kts 136°
2026-05-07 14:09 51.03048 7.45144 33122 ft 430 kts 136°
2026-05-07 14:09 50.69991 7.94914 33087 ft 443 kts 137°
2026-05-07 14:10 50.35563 8.45381 33004 ft 443 kts 137°
2026-05-07 14:10 49.99925 8.96588 33014 ft 435 kts 138°
2026-05-07 14:11 49.66964 9.43025 33056 ft 433 kts 139°
2026-05-07 14:11 49.36524 9.85130 32103 ft 434 kts 136°
2026-05-07 14:11 49.34474 9.88521 33169 ft 433 kts 131°
2026-05-07 14:12 49.32561 9.92027 33079 ft 439 kts 130°
2026-05-07 14:12 49.28599 9.99236 33059 ft 443 kts 132°
2026-05-07 14:13 49.24676 10.06016 33038 ft 442 kts 133°
2026-05-07 14:13 49.20561 10.13006 33028 ft 442 kts 133°
2026-05-07 14:14 49.16516 10.19953 33027 ft 435 kts 133°
2026-05-07 14:14 49.12492 10.26834 33053 ft 441 kts 134°
2026-05-07 14:15 49.08185 10.33718 33040 ft 455 kts 135°
2026-05-07 14:15 49.03788 10.40733 33021 ft 458 kts 135°
2026-05-07 14:16 48.99506 10.47595 33020 ft 455 kts 135°
2026-05-07 14:16 48.97329 10.51017 32683 ft 446 kts 135°
2026-05-07 14:16 48.95173 10.54383 31992 ft 447 kts 135°
2026-05-07 14:16 48.93025 10.57759 31121 ft 452 kts 135°
2026-05-07 14:17 48.90834 10.61254 30084 ft 462 kts 134°
2026-05-07 14:17 48.88603 10.64831 28874 ft 470 kts 134°
2026-05-07 14:17 48.86340 10.68455 27753 ft 475 kts 134°
2026-05-07 14:17 48.84068 10.72082 26669 ft 479 kts 134°
2026-05-07 14:18 48.81786 10.75711 25637 ft 482 kts 134°
2026-05-07 14:18 48.79471 10.79369 24830 ft 479 kts 135°
2026-05-07 14:18 48.77201 10.82915 24248 ft 472 kts 135°
2026-05-07 14:18 48.74891 10.86509 23602 ft 466 kts 135°
2026-05-07 14:19 48.72642 10.90008 22793 ft 459 kts 135°
2026-05-07 14:19 48.70450 10.93420 21780 ft 448 kts 135°
2026-05-07 14:19 48.68317 10.96738 20750 ft 441 kts 135°
2026-05-07 14:19 48.66210 11.00013 19690 ft 435 kts 135°
2026-05-07 14:20 48.64386 11.02846 18762 ft 432 kts 135°
2026-05-07 14:20 48.62305 11.06077 17663 ft 427 kts 136°
2026-05-07 14:20 48.60255 11.09255 16658 ft 419 kts 136°
2026-05-07 14:20 48.58223 11.12365 15706 ft 410 kts 138°
2026-05-07 14:21 48.56037 11.15033 14739 ft 400 kts 148°
2026-05-07 14:21 48.53731 11.17297 13842 ft 393 kts 149°
2026-05-07 14:21 48.51491 11.19529 12869 ft 387 kts 148°
2026-05-07 14:21 48.49401 11.22018 12236 ft 377 kts 140°
2026-05-07 14:22 48.47551 11.24630 12089 ft 353 kts 139°
2026-05-07 14:22 48.45787 11.27107 11917 ft 340 kts 140°
2026-05-07 14:22 48.44053 11.29486 11578 ft 338 kts 140°
2026-05-07 14:22 48.42482 11.32134 11233 ft 342 kts 122°
2026-05-07 14:23 48.41711 11.35504 10925 ft 343 kts 98°
2026-05-07 14:23 48.41738 11.39079 10627 ft 343 kts 85°
2026-05-07 14:23 48.41993 11.42653 10309 ft 342 kts 83°
2026-05-07 14:23 48.42282 11.46193 10003 ft 341 kts 83°
2026-05-07 14:24 48.42573 11.49659 9820 ft 333 kts 83°
2026-05-07 14:24 48.42858 11.53053 9736 ft 321 kts 83°
2026-05-07 14:24 48.43128 11.56330 9659 ft 311 kts 83°
2026-05-07 14:24 48.43388 11.59522 9542 ft 303 kts 83°
2026-05-07 14:25 48.43640 11.62649 9291 ft 300 kts 83°
2026-05-07 14:25 48.43887 11.65756 8955 ft 299 kts 83°
2026-05-07 14:25 48.44133 11.68861 8624 ft 298 kts 83°
2026-05-07 14:25 48.44376 11.71954 8294 ft 297 kts 83°
2026-05-07 14:26 48.44617 11.75024 8060 ft 295 kts 83°
2026-05-07 14:26 48.44858 11.78119 8032 ft 297 kts 83°
2026-05-07 14:26 48.45098 11.81201 8026 ft 296 kts 83°
2026-05-07 14:26 48.45332 11.84232 8016 ft 296 kts 83°
2026-05-07 14:27 48.45569 11.87306 8025 ft 295 kts 83°
2026-05-07 14:27 48.45804 11.90377 8002 ft 294 kts 83°
2026-05-07 14:27 48.46038 11.93426 7844 ft 292 kts 83°
2026-05-07 14:27 48.46269 11.96462 7508 ft 293 kts 83°
2026-05-07 14:28 48.46502 11.99521 7178 ft 295 kts 83°
2026-05-07 14:28 48.46714 12.02327 6944 ft 294 kts 83°
2026-05-07 14:28 48.46941 12.05330 6728 ft 290 kts 83°
2026-05-07 14:28 48.47170 12.08387 6429 ft 290 kts 83°
2026-05-07 14:29 48.47393 12.11363 6126 ft 289 kts 83°
2026-05-07 14:29 48.47616 12.14393 5851 ft 287 kts 84°
2026-05-07 14:29 48.47558 12.17349 5595 ft 284 kts 101°
2026-05-07 14:29 48.46983 12.20122 5525 ft 272 kts 117°
2026-05-07 14:30 48.45945 12.22409 5434 ft 261 kts 140°
2026-05-07 14:30 48.44420 12.23670 5352 ft 244 kts 171°
2026-05-07 14:30 48.42800 12.23588 5269 ft 226 kts 203°
2026-05-07 14:30 48.41561 12.22306 5086 ft 217 kts 237°
2026-05-07 14:31 48.40924 12.20257 5049 ft 216 kts 253°
2026-05-07 14:31 48.40449 12.18111 5019 ft 217 kts 254°
2026-05-07 14:31 48.40153 12.16725 4995 ft 216 kts 254°
2026-05-07 14:31 48.39705 12.14579 4999 ft 214 kts 254°
2026-05-07 14:32 48.39262 12.12443 4985 ft 213 kts 254°
2026-05-07 14:32 48.38888 12.10324 4995 ft 210 kts 261°
2026-05-07 14:32 48.38694 12.08176 4943 ft 203 kts 266°
2026-05-07 14:32 48.38558 12.06065 4660 ft 200 kts 265°
2026-05-07 14:33 48.38408 12.04008 4379 ft 195 kts 265°
2026-05-07 14:33 48.38254 12.02033 4107 ft 190 kts 264°
2026-05-07 14:33 48.38100 12.00082 3842 ft 186 kts 264°
2026-05-07 14:33 48.37949 11.98178 3612 ft 181 kts 265°
2026-05-07 14:34 48.37802 11.96308 3371 ft 178 kts 265°
2026-05-07 14:34 48.37658 11.94512 3140 ft 168 kts 265°
2026-05-07 14:34 48.37527 11.92858 2923 ft 152 kts 266°
2026-05-07 14:34 48.37411 11.91353 2716 ft 138 kts 266°
2026-05-07 14:35 48.37304 11.89978 2537 ft 133 kts 268°
2026-05-07 14:35 48.37197 11.88586 2351 ft 136 kts 267°
2026-05-07 14:35 48.37089 11.87180 2161 ft 136 kts 263°
2026-05-07 14:35 48.36975 11.85808 1993 ft 134 kts 268°
2026-05-07 14:36 48.36867 11.84392 1805 ft 140 kts 267°
2026-05-07 14:36 48.36754 11.82944 1633 ft 138 kts 265°
2026-05-07 14:36 48.36646 11.81610 1500 ft 134 kts 266°
2026-05-07 14:36 48.36555 11.80379 1484 ft 101 kts 263°
2026-05-07 14:37 48.36489 11.79529 1484 ft 67 kts 263°
2026-05-07 14:37 48.36281 11.78668 1475 ft 32 kts 233°
2026-05-07 14:37 48.36194 11.78499 1477 ft 0 kts 217°
2026-05-07 14:38 48.36193 11.78499 1484 ft 0 kts 217°
2026-05-07 14:38 48.36193 11.78498 1484 ft 0 kts 216°
2026-05-07 14:39 48.36190 11.78496 1474 ft 2 kts 215°
2026-05-07 14:39 48.36154 11.78483 1484 ft 5 kts 169°
2026-05-07 14:39 48.36143 11.78519 1481 ft 4 kts 77°
2026-05-07 14:40 48.36146 11.78570 1484 ft 7 kts 86°
2026-05-07 14:40 48.36152 11.78675 1477 ft 14 kts 84°
2026-05-07 14:40 48.36159 11.78789 1484 ft 19 kts 83°
2026-05-07 14:40 48.36178 11.79004 1484 ft 21 kts 83°
2026-05-07 14:41 48.36196 11.79251 1484 ft 8 kts 86°
2026-05-07 14:41 48.36197 11.79258 1484 ft 0 kts 86°
2026-05-07 14:41 48.36196 11.79270 1484 ft 3 kts 95°
2026-05-07 14:42 48.36177 11.79299 1481 ft 10 kts 159°
2026-05-07 14:42 48.36093 11.79263 1478 ft 16 kts 243°
2026-05-07 14:42 48.36077 11.79097 1471 ft 17 kts 264°
2026-05-07 14:42 48.36063 11.78906 1473 ft 20 kts 263°
2026-05-07 14:43 48.36044 11.78679 1484 ft 24 kts 263°
2026-05-07 14:43 48.36017 11.78327 1478 ft 27 kts 263°
2026-05-07 14:43 48.36002 11.78139 1475 ft 26 kts 263°
2026-05-07 14:43 48.35983 11.77898 1484 ft 17 kts 263°
2026-05-07 14:44 48.35970 11.77741 1484 ft 13 kts 253°
2026-05-07 14:44 48.35905 11.77686 1479 ft 12 kts 175°
2026-05-07 14:44 48.35827 11.77701 1484 ft 11 kts 176°
2026-05-07 14:44 48.35748 11.77713 1482 ft 11 kts 173°
2026-05-07 14:45 48.35672 11.77727 1481 ft 11 kts 173°
2026-05-07 14:45 48.35593 11.77741 1478 ft 12 kts 174°
2026-05-07 14:45 48.35500 11.77756 1471 ft 15 kts 174°
2026-05-07 14:45 48.35388 11.77773 1473 ft 17 kts 174°
2026-05-07 14:46 48.35296 11.77817 1480 ft 10 kts 96°
2026-05-07 14:46 48.35332 11.77904 1484 ft 10 kts 61°
2026-05-07 14:46 48.35346 11.78013 1480 ft 12 kts 84°
2026-05-07 14:46 48.35330 11.78145 1483 ft 15 kts 141°
2026-05-07 14:47 48.35234 11.78181 1481 ft 14 kts 174°
2026-05-07 14:47 48.35162 11.78193 1484 ft 9 kts 173°
2026-05-07 14:47 48.35103 11.78203 1484 ft 7 kts 173°
2026-05-07 14:47 48.35063 11.78210 1481 ft 5 kts 173°
2026-05-07 14:48 48.35034 11.78215 1477 ft 4 kts 173°
2026-05-07 14:48 48.35007 11.78220 1484 ft 4 kts 173°
2026-05-07 14:48 48.34983 11.78225 1472 ft 4 kts 173°
2026-05-07 14:48 48.34957 11.78229 1483 ft 4 kts 172°
2026-05-07 14:49 48.34940 11.78260 1480 ft 6 kts 101°
2026-05-07 14:49 48.34946 11.78345 1484 ft 6 kts 82°
2026-05-07 14:49 48.34949 11.78377 1484 ft 0 kts 83°